﻿測定場所 (Monitoring sites),日付 (Measurement date),時間 (Measurement time),線量率 最大値 (max) μGy/h,線量率 最小値 (min) μGy/h,線量率 平均値 (average) μGy/h,
江戸川 (Edogawa),2015-09-13,23:01～24:00,0.0639,0.0577,0.0605,
江戸川 (Edogawa),2015-09-13,22:01～23:00,0.0636,0.0581,0.0607,
江戸川 (Edogawa),2015-09-13,21:01～22:00,0.0636,0.0560,0.0604,
江戸川 (Edogawa),2015-09-13,20:01～21:00,0.0639,0.0555,0.0608,
江戸川 (Edogawa),2015-09-13,19:01～20:00,0.0634,0.0567,0.0605,
江戸川 (Edogawa),2015-09-13,18:01～19:00,0.0640,0.0556,0.0605,
江戸川 (Edogawa),2015-09-13,17:01～18:00,0.0646,0.0567,0.0604,
江戸川 (Edogawa),2015-09-13,16:01～17:00,0.0630,0.0565,0.0603,
江戸川 (Edogawa),2015-09-13,15:01～16:00,0.0635,0.0571,0.0606,
江戸川 (Edogawa),2015-09-13,14:01～15:00,0.0634,0.0576,0.0608,
江戸川 (Edogawa),2015-09-13,13:01～14:00,0.0637,0.0576,0.0604,
江戸川 (Edogawa),2015-09-13,12:01～13:00,0.0641,0.0577,0.0604,
江戸川 (Edogawa),2015-09-13,11:01～12:00,0.0646,0.0571,0.0607,
江戸川 (Edogawa),2015-09-13,10:01～11:00,0.0632,0.0574,0.0603,
江戸川 (Edogawa),2015-09-13,09:01～10:00,0.0632,0.0569,0.0602,
江戸川 (Edogawa),2015-09-13,08:01～09:00,0.0641,0.0573,0.0606,
江戸川 (Edogawa),2015-09-13,07:01～08:00,0.0642,0.0578,0.0607,
江戸川 (Edogawa),2015-09-13,06:01～07:00,0.0635,0.0570,0.0608,
江戸川 (Edogawa),2015-09-13,05:01～06:00,0.0654,0.0575,0.0607,
江戸川 (Edogawa),2015-09-13,04:01～05:00,0.0651,0.0581,0.0613,
江戸川 (Edogawa),2015-09-13,03:01～04:00,0.0657,0.0578,0.0615,
江戸川 (Edogawa),2015-09-13,02:01～03:00,0.0649,0.0580,0.0613,
江戸川 (Edogawa),2015-09-13,01:01～02:00,0.0662,0.0582,0.0615,
江戸川 (Edogawa),2015-09-13,00:01～01:00,0.0646,0.0564,0.0612,
江戸川 (Edogawa),2015-09-12,23:01～24:00,0.0643,0.0577,0.0609,
江戸川 (Edogawa),2015-09-12,22:01～23:00,0.0643,0.0586,0.0612,
江戸川 (Edogawa),2015-09-12,21:01～22:00,0.0644,0.0577,0.0609,
江戸川 (Edogawa),2015-09-12,20:01～21:00,0.0650,0.0574,0.0609,
江戸川 (Edogawa),2015-09-12,19:01～20:00,0.0638,0.0576,0.0606,
江戸川 (Edogawa),2015-09-12,18:01～19:00,0.0644,0.0583,0.0612,
江戸川 (Edogawa),2015-09-12,17:01～18:00,0.0635,0.0571,0.0605,
江戸川 (Edogawa),2015-09-12,16:01～17:00,0.0647,0.0557,0.0603,
江戸川 (Edogawa),2015-09-12,15:01～16:00,0.0628,0.0568,0.0601,
江戸川 (Edogawa),2015-09-12,14:01～15:00,0.0645,0.0569,0.0600,
江戸川 (Edogawa),2015-09-12,13:01～14:00,0.0629,0.0561,0.0603,
江戸川 (Edogawa),2015-09-12,12:01～13:00,0.0641,0.0575,0.0605,
江戸川 (Edogawa),2015-09-12,11:01～12:00,0.0638,0.0561,0.0601,
江戸川 (Edogawa),2015-09-12,10:01～11:00,0.0633,0.0570,0.0600,
江戸川 (Edogawa),2015-09-12,09:01～10:00,0.0650,0.0577,0.0602,
江戸川 (Edogawa),2015-09-12,08:01～09:00,0.0645,0.0565,0.0605,
江戸川 (Edogawa),2015-09-12,07:01～08:00,0.0638,0.0560,0.0605,
江戸川 (Edogawa),2015-09-12,06:01～07:00,0.0644,0.0570,0.0607,
江戸川 (Edogawa),2015-09-12,05:01～06:00,0.0644,0.0578,0.0604,
江戸川 (Edogawa),2015-09-12,04:01～05:00,0.0651,0.0575,0.0604,
江戸川 (Edogawa),2015-09-12,03:01～04:00,0.0641,0.0560,0.0602,
江戸川 (Edogawa),2015-09-12,02:01～03:00,0.0638,0.0563,0.0603,
江戸川 (Edogawa),2015-09-12,01:01～02:00,0.0632,0.0566,0.0599,
江戸川 (Edogawa),2015-09-12,00:01～01:00,0.0630,0.0573,0.0598,
江戸川 (Edogawa),2015-09-11,23:01～24:00,0.0644,0.0567,0.0601,
江戸川 (Edogawa),2015-09-11,22:01～23:00,0.0654,0.0571,0.0603,
江戸川 (Edogawa),2015-09-11,21:01～22:00,0.0634,0.0568,0.0600,
江戸川 (Edogawa),2015-09-11,20:01～21:00,0.0643,0.0561,0.0602,
江戸川 (Edogawa),2015-09-11,19:01～20:00,0.0642,0.0567,0.0601,
江戸川 (Edogawa),2015-09-11,18:01～19:00,0.0623,0.0564,0.0595,
江戸川 (Edogawa),2015-09-11,17:01～18:00,0.0628,0.0563,0.0597,
江戸川 (Edogawa),2015-09-11,16:01～17:00,0.0642,0.0572,0.0603,
江戸川 (Edogawa),2015-09-11,15:01～16:00,0.0625,0.0570,0.0598,
江戸川 (Edogawa),2015-09-11,14:01～15:00,0.0646,0.0559,0.0600,
江戸川 (Edogawa),2015-09-11,13:01～14:00,0.0626,0.0572,0.0600,
江戸川 (Edogawa),2015-09-11,12:01～13:00,0.0644,0.0550,0.0601,
江戸川 (Edogawa),2015-09-11,11:01～12:00,0.0643,0.0567,0.0600,
江戸川 (Edogawa),2015-09-11,10:01～11:00,0.0627,0.0564,0.0598,
江戸川 (Edogawa),2015-09-11,09:01～10:00,0.0650,0.0548,0.0605,
江戸川 (Edogawa),2015-09-11,08:01～09:00,0.0649,0.0564,0.0602,
江戸川 (Edogawa),2015-09-11,07:01～08:00,0.0644,0.0571,0.0598,
江戸川 (Edogawa),2015-09-11,06:01～07:00,0.0644,0.0568,0.0597,
江戸川 (Edogawa),2015-09-11,05:01～06:00,0.0633,0.0570,0.0594,
江戸川 (Edogawa),2015-09-11,04:01～05:00,0.0622,0.0562,0.0595,
江戸川 (Edogawa),2015-09-11,03:01～04:00,0.0618,0.0560,0.0590,
江戸川 (Edogawa),2015-09-11,02:01～03:00,0.0633,0.0545,0.0586,
江戸川 (Edogawa),2015-09-11,01:01～02:00,0.0635,0.0559,0.0590,
江戸川 (Edogawa),2015-09-11,00:01～01:00,0.0628,0.0553,0.0592,
江戸川 (Edogawa),2015-09-10,23:01～24:00,0.0619,0.0544,0.0588,
江戸川 (Edogawa),2015-09-10,22:01～23:00,0.0623,0.0544,0.0584,
江戸川 (Edogawa),2015-09-10,21:01～22:00,0.0617,0.0557,0.0584,
江戸川 (Edogawa),2015-09-10,20:01～21:00,0.0628,0.0558,0.0582,
江戸川 (Edogawa),2015-09-10,19:01～20:00,0.0609,0.0554,0.0586,
江戸川 (Edogawa),2015-09-10,18:01～19:00,0.0622,0.0557,0.0588,
江戸川 (Edogawa),2015-09-10,17:01～18:00,0.0620,0.0552,0.0589,
江戸川 (Edogawa),2015-09-10,16:01～17:00,0.0623,0.0550,0.0589,
江戸川 (Edogawa),2015-09-10,15:01～16:00,0.0622,0.0551,0.0592,
江戸川 (Edogawa),2015-09-10,14:01～15:00,0.0646,0.0578,0.0615,
江戸川 (Edogawa),2015-09-10,13:01～14:00,0.0671,0.0582,0.0629,
江戸川 (Edogawa),2015-09-10,12:01～13:00,0.0670,0.0609,0.0640,
江戸川 (Edogawa),2015-09-10,11:01～12:00,0.0681,0.0576,0.0635,
江戸川 (Edogawa),2015-09-10,10:01～11:00,0.0693,0.0587,0.0635,
江戸川 (Edogawa),2015-09-10,09:01～10:00,0.0694,0.0638,0.0664,
江戸川 (Edogawa),2015-09-10,08:01～09:00,0.0699,0.0614,0.0665,
江戸川 (Edogawa),2015-09-10,07:01～08:00,0.0695,0.0564,0.0643,
江戸川 (Edogawa),2015-09-10,06:01～07:00,0.0659,0.0582,0.0623,
江戸川 (Edogawa),2015-09-10,05:01～06:00,0.0643,0.0563,0.0600,
江戸川 (Edogawa),2015-09-10,04:01～05:00,0.0611,0.0492,0.0556,
江戸川 (Edogawa),2015-09-10,03:01～04:00,0.0608,0.0488,0.0538,
江戸川 (Edogawa),2015-09-10,02:01～03:00,0.0631,0.0539,0.0585,
江戸川 (Edogawa),2015-09-10,01:01～02:00,0.0619,0.0511,0.0564,
江戸川 (Edogawa),2015-09-10,00:01～01:00,0.0610,0.0542,0.0582,
江戸川 (Edogawa),2015-09-09,23:01～24:00,0.0611,0.0532,0.0575,
江戸川 (Edogawa),2015-09-09,22:01～23:00,0.0605,0.0551,0.0574,
江戸川 (Edogawa),2015-09-09,21:01～22:00,0.0618,0.0486,0.0548,
江戸川 (Edogawa),2015-09-09,20:01～21:00,0.0528,0.0444,0.0493,
江戸川 (Edogawa),2015-09-09,19:01～20:00,0.0605,0.0502,0.0570,
江戸川 (Edogawa),2015-09-09,18:01～19:00,0.0597,0.0549,0.0571,
江戸川 (Edogawa),2015-09-09,17:01～18:00,0.0612,0.0532,0.0573,
江戸川 (Edogawa),2015-09-09,16:01～17:00,0.0606,0.0503,0.0550,
江戸川 (Edogawa),2015-09-09,15:01～16:00,0.0621,0.0548,0.0582,
江戸川 (Edogawa),2015-09-09,14:01～15:00,0.0594,0.0497,0.0547,
江戸川 (Edogawa),2015-09-09,13:01～14:00,0.0629,0.0552,0.0590,
江戸川 (Edogawa),2015-09-09,12:01～13:00,0.0617,0.0536,0.0586,
江戸川 (Edogawa),2015-09-09,11:01～12:00,0.0624,0.0542,0.0585,
江戸川 (Edogawa),2015-09-09,10:01～11:00,0.0625,0.0546,0.0592,
江戸川 (Edogawa),2015-09-09,09:01～10:00,0.0637,0.0547,0.0595,
江戸川 (Edogawa),2015-09-09,08:01～09:00,0.0635,0.0564,0.0600,
江戸川 (Edogawa),2015-09-09,07:01～08:00,0.0643,0.0571,0.0602,
江戸川 (Edogawa),2015-09-09,06:01～07:00,0.0629,0.0560,0.0594,
江戸川 (Edogawa),2015-09-09,05:01～06:00,0.0606,0.0542,0.0576,
江戸川 (Edogawa),2015-09-09,04:01～05:00,0.0632,0.0529,0.0582,
江戸川 (Edogawa),2015-09-09,03:01～04:00,0.0611,0.0550,0.0579,
江戸川 (Edogawa),2015-09-09,02:01～03:00,0.0624,0.0550,0.0586,
江戸川 (Edogawa),2015-09-09,01:01～02:00,0.0626,0.0561,0.0594,
江戸川 (Edogawa),2015-09-09,00:01～01:00,0.0662,0.0566,0.0609,
江戸川 (Edogawa),2015-09-08,23:01～24:00,0.0653,0.0569,0.0608,
江戸川 (Edogawa),2015-09-08,22:01～23:00,0.0652,0.0568,0.0612,
江戸川 (Edogawa),2015-09-08,21:01～22:00,0.0659,0.0577,0.0615,
江戸川 (Edogawa),2015-09-08,20:01～21:00,0.0638,0.0570,0.0604,
江戸川 (Edogawa),2015-09-08,19:01～20:00,0.0628,0.0569,0.0595,
江戸川 (Edogawa),2015-09-08,18:01～19:00,0.0638,0.0570,0.0605,
江戸川 (Edogawa),2015-09-08,17:01～18:00,0.0655,0.0576,0.0610,
江戸川 (Edogawa),2015-09-08,16:01～17:00,0.0644,0.0550,0.0599,
江戸川 (Edogawa),2015-09-08,15:01～16:00,0.0684,0.0580,0.0621,
江戸川 (Edogawa),2015-09-08,14:01～15:00,0.0644,0.0575,0.0605,
江戸川 (Edogawa),2015-09-08,13:01～14:00,0.0637,0.0568,0.0596,
江戸川 (Edogawa),2015-09-08,12:01～13:00,0.0635,0.0550,0.0599,
江戸川 (Edogawa),2015-09-08,11:01～12:00,0.0641,0.0572,0.0612,
江戸川 (Edogawa),2015-09-08,10:01～11:00,0.0664,0.0577,0.0615,
江戸川 (Edogawa),2015-09-08,09:01～10:00,0.0673,0.0587,0.0624,
江戸川 (Edogawa),2015-09-08,08:01～09:00,0.0695,0.0596,0.0644,
江戸川 (Edogawa),2015-09-08,07:01～08:00,0.0712,0.0617,0.0653,
江戸川 (Edogawa),2015-09-08,06:01～07:00,0.0698,0.0619,0.0651,
江戸川 (Edogawa),2015-09-08,05:01～06:00,0.0738,0.0634,0.0686,
江戸川 (Edogawa),2015-09-08,04:01～05:00,0.0732,0.0614,0.0669,
江戸川 (Edogawa),2015-09-08,03:01～04:00,0.0684,0.0606,0.0654,
江戸川 (Edogawa),2015-09-08,02:01～03:00,0.0660,0.0560,0.0617,
江戸川 (Edogawa),2015-09-08,01:01～02:00,0.0633,0.0572,0.0602,
江戸川 (Edogawa),2015-09-08,00:01～01:00,0.0648,0.0564,0.0613,
江戸川 (Edogawa),2015-09-07,23:01～24:00,0.0680,0.0594,0.0639,
江戸川 (Edogawa),2015-09-07,22:01～23:00,0.0715,0.0624,0.0674,
江戸川 (Edogawa),2015-09-07,21:01～22:00,0.0703,0.0628,0.0670,
江戸川 (Edogawa),2015-09-07,20:01～21:00,0.0686,0.0617,0.0652,
江戸川 (Edogawa),2015-09-07,19:01～20:00,0.0638,0.0576,0.0606,
江戸川 (Edogawa),2015-09-07,18:01～19:00,0.0641,0.0558,0.0607,
江戸川 (Edogawa),2015-09-07,17:01～18:00,0.0643,0.0561,0.0599,
江戸川 (Edogawa),2015-09-07,16:01～17:00,0.0645,0.0563,0.0602,
江戸川 (Edogawa),2015-09-07,15:01～16:00,0.0639,0.0572,0.0600,
江戸川 (Edogawa),2015-09-07,14:01～15:00,0.0626,0.0576,0.0603,
江戸川 (Edogawa),2015-09-07,13:01～14:00,0.0658,0.0588,0.0615,
江戸川 (Edogawa),2015-09-07,12:01～13:00,0.0638,0.0569,0.0604,
江戸川 (Edogawa),2015-09-07,11:01～12:00,0.0649,0.0571,0.0611,
江戸川 (Edogawa),2015-09-07,10:01～11:00,0.0646,0.0567,0.0600,
江戸川 (Edogawa),2015-09-07,09:01～10:00,0.0645,0.0584,0.0612,
江戸川 (Edogawa),2015-09-07,08:01～09:00,0.0683,0.0608,0.0648,
江戸川 (Edogawa),2015-09-07,07:01～08:00,0.0696,0.0608,0.0651,
江戸川 (Edogawa),2015-09-07,06:01～07:00,0.0692,0.0610,0.0645,
江戸川 (Edogawa),2015-09-07,05:01～06:00,0.0674,0.0592,0.0636,
江戸川 (Edogawa),2015-09-07,04:01～05:00,0.0738,0.0632,0.0681,
江戸川 (Edogawa),2015-09-07,03:01～04:00,0.0697,0.0626,0.0661,
江戸川 (Edogawa),2015-09-07,02:01～03:00,0.0713,0.0631,0.0667,
江戸川 (Edogawa),2015-09-07,01:01～02:00,0.0728,0.0641,0.0680,
江戸川 (Edogawa),2015-09-07,00:01～01:00,0.0771,0.0668,0.0715,
